Location: Newark
(52.0267°N, 0.2640°W)
Time: 14:31:19
(UTC+00:00)

ISS - Pass Details

Date: 24 December 2019
Orbit: 415 x 421 km, 51.6° (Epoch: 21 January)

Event Time Altitude Azimuth Distance (km) Brightness Sun altitude
Exits shadow 06:00:30 - 204° (SSW) 2,015 -0.4 -18.2°
Reaches altitude 10° 06:02:06 10° 190° (S) 1,484 -0.9 -18.0°
Maximum altitude 06:04:30 19° 144° (SE) 1,076 -1.0 -17.7°
Drops below altitude 10° 06:06:54 10° 98° (E) 1,491 0.3 -17.3°
Sets 06:09:25 0° 79° (E) 2,359 1.2 -16.9°
